Powrót do katalogu

FENGYUN 1C DEB

AktywnySSO
NORAD 31411·DEBRIS·🇨🇳 China

Wystrzelony May 10, 1999 z Taiyuan Satellite Launch Center

Loading…

Następne Przeloty (najbliższe 24 godziny)

TLE

ŚwieżeSource: Space-Track

Epoka: Sep 14, 2026, 15:42 UTC

1 31411U 99025BSX 26257.65419882  .00000595  00000-0  24118-3 0  9998
2 31411  98.6363 321.4993 0101854 167.0814 346.4325 14.28491963984188

Śledź FENGYUN 1C DEB w czasie rzeczywistym z AllMySat

Download on the App Store